Вернуться в каталог

COSMOS 1275 DEB

АктивенPO
NORAD 39943·DEBRIS·🇷🇺 Russia

Запущен Jun 4, 1981 с Plesetsk Cosmodrome

Loading…

Ближайшие Пролёты (ближайшие 24 часа)

TLE

СвежийSource: Space-Track

Эпоха: Sep 14, 2026, 15:53 UTC

1 39943U 81053ND  26257.66225022  .00000774  00000-0  90869-3 0  9995
2 39943  83.0654 139.4264 0145246 143.7125 247.0370 13.62585848608096

Отслеживайте COSMOS 1275 DEB в реальном времени с AllMySat

Download on the App Store